Time,TemperatureF,DewpointF,PressureIn,WindDirection,WindDirectionDegrees,WindSpeedMPH,WindSpeedGustMPH,Humidity,HourlyPrecipIn,Conditions,Clouds,dailyrainin,SoftwareType,DateUTC
2013-01-22 00:04:00,32.0,15.0,30.08,North,-999,-999.0,-999.0,48,-99.99,,,-99.99,,2013-01-22 05:04:00,
2013-01-22 00:12:00,32.0,15.0,30.08,North,-999,-999.0,-999.0,48,-99.99,,,-99.99,,2013-01-22 05:12:00,
2013-01-22 00:23:00,32.0,15.0,30.08,North,-999,-999.0,-999.0,48,-99.99,,,-99.99,,2013-01-22 05:23:00,
2013-01-22 00:32:00,31.0,13.0,30.09,North,-999,-999.0,-999.0,46,-99.99,,,-99.99,,2013-01-22 05:32:00,
2013-01-22 00:43:00,31.0,13.0,30.09,North,-999,-999.0,-999.0,46,-99.99,,,-99.99,,2013-01-22 05:43:00,
2013-01-22 00:53:00,31.0,13.0,30.09,North,-999,-999.0,-999.0,46,-99.99,,,-99.99,,2013-01-22 05:53:00,
2013-01-22 01:02:00,31.0,13.0,30.09,North,-999,-999.0,-999.0,46,-99.99,,,-99.99,,2013-01-22 06:02:00,
2013-01-22 01:12:00,31.0,13.0,30.09,North,-999,-999.0,-999.0,46,-99.99,,,-99.99,,2013-01-22 06:12:00,
2013-01-22 01:22:00,31.0,13.0,30.09,North,-999,-999.0,-999.0,46,-99.99,,,-99.99,,2013-01-22 06:22:00,
2013-01-22 01:33:00,30.0,12.0,30.08,North,-999,-999.0,-999.0,47,-99.99,,,-99.99,,2013-01-22 06:33:00,
2013-01-22 01:43:00,30.0,12.0,30.08,North,-999,-999.0,-999.0,47,-99.99,,,-99.99,,2013-01-22 06:43:00,
2013-01-22 01:53:00,29.0,13.0,30.08,North,-999,-999.0,-999.0,51,-99.99,,,-99.99,,2013-01-22 06:53:00,
2013-01-22 02:02:00,29.0,13.0,30.08,North,-999,-999.0,-999.0,51,-99.99,,,-99.99,,2013-01-22 07:02:00,
2013-01-22 02:12:00,29.0,13.0,30.08,North,-999,-999.0,-999.0,51,-99.99,,,-99.99,,2013-01-22 07:12:00,
2013-01-22 02:22:00,28.0,13.0,30.08,North,-999,-999.0,-999.0,52,-99.99,,,-99.99,,2013-01-22 07:22:00,
2013-01-22 02:33:00,28.0,14.0,30.08,North,-999,-999.0,-999.0,54,-99.99,,,-99.99,,2013-01-22 07:33:00,
2013-01-22 02:43:00,28.0,14.0,30.08,North,-999,-999.0,-999.0,54,-99.99,,,-99.99,,2013-01-22 07:43:00,
2013-01-22 02:53:00,28.0,13.0,30.09,North,-999,-999.0,-999.0,53,-99.99,,,-99.99,,2013-01-22 07:53:00,
2013-01-22 03:02:00,28.0,13.0,30.09,North,-999,-999.0,-999.0,53,-99.99,,,-99.99,,2013-01-22 08:02:00,
2013-01-22 03:12:00,28.0,13.0,30.09,North,-999,-999.0,-999.0,53,-99.99,,,-99.99,,2013-01-22 08:12:00,
2013-01-22 03:22:00,28.0,13.0,30.09,North,-999,-999.0,-999.0,52,-99.99,,,-99.99,,2013-01-22 08:22:00,
2013-01-22 03:32:00,27.0,12.0,30.09,North,-999,-999.0,-999.0,52,-99.99,,,-99.99,,2013-01-22 08:32:00,
2013-01-22 03:43:00,27.0,12.0,30.09,North,-999,-999.0,-999.0,52,-99.99,,,-99.99,,2013-01-22 08:43:00,
2013-01-22 03:53:00,27.0,12.0,30.09,North,-999,-999.0,-999.0,52,-99.99,,,-99.99,,2013-01-22 08:53:00,
2013-01-22 04:02:00,27.0,12.0,30.09,North,-999,-999.0,-999.0,52,-99.99,,,-99.99,,2013-01-22 09:02:00,
2013-01-22 04:12:00,27.0,12.0,30.09,North,-999,-999.0,-999.0,52,-99.99,,,-99.99,,2013-01-22 09:12:00,
2013-01-22 04:23:00,27.0,12.0,30.08,North,-999,-999.0,-999.0,52,-99.99,,,-99.99,,2013-01-22 09:23:00,
2013-01-22 04:33:00,27.0,12.0,30.08,North,-999,-999.0,-999.0,52,-99.99,,,-99.99,,2013-01-22 09:33:00,
2013-01-22 04:43:00,27.0,12.0,30.08,North,-999,-999.0,-999.0,52,-99.99,,,-99.99,,2013-01-22 09:43:00,
2013-01-22 04:53:00,26.0,12.0,30.06,North,-999,-999.0,-999.0,54,-99.99,,,-99.99,,2013-01-22 09:53:00,
2013-01-22 05:02:00,26.0,11.0,30.07,North,-999,-999.0,-999.0,53,-99.99,,,-99.99,,2013-01-22 10:02:00,
2013-01-22 05:12:00,26.0,11.0,30.07,North,-999,-999.0,-999.0,53,-99.99,,,-99.99,,2013-01-22 10:12:00,
2013-01-22 05:22:00,26.0,11.0,30.07,North,-999,-999.0,-999.0,53,-99.99,,,-99.99,,2013-01-22 10:22:00,
2013-01-22 05:32:00,26.0,9.0,30.07,North,-999,-999.0,-999.0,49,-99.99,,,-99.99,,2013-01-22 10:32:00,
2013-01-22 05:42:00,26.0,9.0,30.07,North,-999,-999.0,-999.0,49,-99.99,,,-99.99,,2013-01-22 10:42:00,
2013-01-22 05:53:00,26.0,9.0,30.07,North,-999,-999.0,-999.0,49,-99.99,,,-99.99,,2013-01-22 10:53:00,
2013-01-22 06:02:00,26.0,9.0,30.07,North,-999,-999.0,-999.0,49,-99.99,,,-99.99,,2013-01-22 11:02:00,
2013-01-22 06:12:00,26.0,9.0,30.07,North,-999,-999.0,-999.0,49,-99.99,,,-99.99,,2013-01-22 11:12:00,
2013-01-22 07:04:00,25.0,9.0,30.10,North,-999,-999.0,-999.0,49,-99.99,,,-99.99,,2013-01-22 12:04:00,
2013-01-22 07:13:00,25.0,9.0,30.10,North,-999,-999.0,-999.0,49,-99.99,,,-99.99,,2013-01-22 12:13:00,
2013-01-22 07:23:00,25.0,9.0,30.10,North,-999,-999.0,-999.0,49,-99.99,,,-99.99,,2013-01-22 12:23:00,
2013-01-22 07:33:00,25.0,9.0,30.10,North,-999,-999.0,-999.0,49,-99.99,,,-99.99,,2013-01-22 12:33:00,
2013-01-22 07:43:00,25.0,9.0,30.11,North,-999,-999.0,-999.0,51,-99.99,,,-99.99,,2013-01-22 12:43:00,
2013-01-22 07:53:00,24.0,9.0,30.12,North,-999,-999.0,-999.0,52,-99.99,,,-99.99,,2013-01-22 12:53:00,
2013-01-22 08:04:00,24.0,10.0,30.12,North,-999,-999.0,-999.0,54,-99.99,,,-99.99,,2013-01-22 13:04:00,
2013-01-22 08:14:00,24.0,10.0,30.12,North,-999,-999.0,-999.0,54,-99.99,,,-99.99,,2013-01-22 13:14:00,
2013-01-22 08:23:00,25.0,9.0,30.13,NE,35,2.0,-999.0,51,-99.99,,,-99.99,,2013-01-22 13:23:00,
2013-01-22 08:33:00,25.0,9.0,30.14,NNW,339,1.0,-999.0,50,-99.99,,,-99.99,,2013-01-22 13:33:00,
2013-01-22 08:43:00,25.0,9.0,30.14,NNW,339,1.0,-999.0,50,-99.99,,,-99.99,,2013-01-22 13:43:00,
2013-01-22 08:54:00,25.0,9.0,30.14,NNW,339,1.0,-999.0,50,-99.99,,,-99.99,,2013-01-22 13:54:00,
2013-01-22 09:03:00,27.0,9.0,30.15,NW,319,1.0,-999.0,46,-99.99,,,-99.99,,2013-01-22 14:03:00,
2013-01-22 09:13:00,27.0,9.0,30.15,NW,319,1.0,-999.0,46,-99.99,,,-99.99,,2013-01-22 14:13:00,
2013-01-22 09:23:00,27.0,9.0,30.15,NW,319,1.0,-999.0,46,-99.99,,,-99.99,,2013-01-22 14:23:00,
2013-01-22 09:34:00,28.0,7.0,30.17,North,5,1.0,-999.0,41,-99.99,,,-99.99,,2013-01-22 14:34:00,
2013-01-22 09:44:00,28.0,7.0,30.17,North,5,1.0,-999.0,41,-99.99,,,-99.99,,2013-01-22 14:44:00,
2013-01-22 09:54:00,29.0,8.0,30.18,ENE,73,1.0,-999.0,41,-99.99,,,-99.99,,2013-01-22 14:54:00,
2013-01-22 10:04:00,30.0,7.0,30.18,NW,313,1.0,-999.0,37,-99.99,,,-99.99,,2013-01-22 15:04:00,
2013-01-22 10:13:00,30.0,7.0,30.18,NW,313,1.0,-999.0,37,-99.99,,,-99.99,,2013-01-22 15:13:00,
2013-01-22 10:24:00,31.0,8.0,30.19,NNE,29,3.0,-999.0,37,-99.99,,,-99.99,,2013-01-22 15:24:00,
2013-01-22 10:34:00,31.0,8.0,30.19,NNE,29,3.0,-999.0,37,-99.99,,,-99.99,,2013-01-22 15:34:00,
2013-01-22 10:43:00,31.0,8.0,30.19,NNE,29,3.0,-999.0,37,-99.99,,,-99.99,,2013-01-22 15:43:00,
2013-01-22 10:54:00,32.0,7.0,30.21,NW,317,4.0,-999.0,34,-99.99,,,-99.99,,2013-01-22 15:54:00,
2013-01-22 11:03:00,32.0,7.0,30.21,NW,320,4.0,-999.0,35,-99.99,,,-99.99,,2013-01-22 16:03:00,
2013-01-22 11:13:00,32.0,7.0,30.21,NW,320,4.0,-999.0,35,-99.99,,,-99.99,,2013-01-22 16:13:00,
2013-01-22 11:23:00,32.0,7.0,30.21,NW,320,4.0,-999.0,35,-99.99,,,-99.99,,2013-01-22 16:23:00,
2013-01-22 11:33:00,32.0,7.0,30.21,NW,320,4.0,-999.0,35,-99.99,,,-99.99,,2013-01-22 16:33:00,
2013-01-22 11:43:00,32.0,7.0,30.21,NW,320,4.0,-999.0,35,-99.99,,,-99.99,,2013-01-22 16:43:00,
2013-01-22 11:54:00,35.0,9.0,30.22,North,355,4.0,-999.0,33,-99.99,,,-99.99,,2013-01-22 16:54:00,
2013-01-22 12:04:00,35.0,9.0,30.22,North,355,4.0,-999.0,33,-99.99,,,-99.99,,2013-01-22 17:04:00,
2013-01-22 12:13:00,35.0,9.0,30.22,North,355,4.0,-999.0,33,-99.99,,,-99.99,,2013-01-22 17:13:00,
2013-01-22 12:23:00,34.0,6.0,30.22,NNW,335,6.0,-999.0,30,-99.99,,,-99.99,,2013-01-22 17:23:00,
2013-01-22 12:34:00,34.0,6.0,30.22,NNW,335,6.0,-999.0,30,-99.99,,,-99.99,,2013-01-22 17:34:00,
2013-01-22 12:44:00,34.0,6.0,30.22,NNW,335,6.0,-999.0,30,-99.99,,,-99.99,,2013-01-22 17:44:00,
2013-01-22 12:54:00,36.0,8.0,30.21,NW,319,5.0,-999.0,30,-99.99,,,-99.99,,2013-01-22 17:54:00,
2013-01-22 13:04:00,36.0,8.0,30.19,NW,323,6.0,-999.0,31,-99.99,,,-99.99,,2013-01-22 18:04:00,
2013-01-22 13:13:00,36.0,8.0,30.19,NW,323,6.0,-999.0,31,-99.99,,,-99.99,,2013-01-22 18:13:00,
2013-01-22 13:24:00,36.0,8.0,30.19,NW,323,6.0,-999.0,31,-99.99,,,-99.99,,2013-01-22 18:24:00,
2013-01-22 13:34:00,38.0,7.0,30.18,NW,325,5.0,-999.0,27,-99.99,,,-99.99,,2013-01-22 18:34:00,
2013-01-22 13:43:00,38.0,7.0,30.18,NW,325,5.0,-999.0,27,-99.99,,,-99.99,,2013-01-22 18:43:00,
2013-01-22 13:54:00,38.0,7.0,30.18,NW,325,5.0,-999.0,27,-99.99,,,-99.99,,2013-01-22 18:54:00,
2013-01-22 14:04:00,38.0,7.0,30.18,NW,325,5.0,-999.0,27,-99.99,,,-99.99,,2013-01-22 19:04:00,
2013-01-22 14:13:00,38.0,7.0,30.18,NW,325,5.0,-999.0,27,-99.99,,,-99.99,,2013-01-22 19:13:00,
2013-01-22 14:34:00,38.0,8.0,30.14,NW,325,7.0,-999.0,28,-99.99,,,-99.99,,2013-01-22 19:34:00,
2013-01-22 14:44:00,38.0,8.0,30.14,NW,325,7.0,-999.0,28,-99.99,,,-99.99,,2013-01-22 19:44:00,
2013-01-22 14:54:00,38.0,8.0,30.14,NW,325,7.0,-999.0,28,-99.99,,,-99.99,,2013-01-22 19:54:00,
2013-01-22 15:03:00,38.0,9.0,30.14,North,360,6.0,-999.0,29,-99.99,,,-99.99,,2013-01-22 20:03:00,
2013-01-22 15:13:00,38.0,9.0,30.14,North,360,6.0,-999.0,29,-99.99,,,-99.99,,2013-01-22 20:13:00,
2013-01-22 15:23:00,38.0,7.0,30.14,NNW,327,6.0,-999.0,27,-99.99,,,-99.99,,2013-01-22 20:23:00,
2013-01-22 15:33:00,37.0,7.0,30.14,NNW,331,7.0,-999.0,28,-99.99,,,-99.99,,2013-01-22 20:33:00,
2013-01-22 15:43:00,37.0,7.0,30.14,NNW,331,7.0,-999.0,28,-99.99,,,-99.99,,2013-01-22 20:43:00,
2013-01-22 15:53:00,37.0,8.0,30.15,NNW,336,6.0,-999.0,29,-99.99,,,-99.99,,2013-01-22 20:53:00,
2013-01-22 16:03:00,38.0,8.0,30.16,North,350,5.0,-999.0,28,-99.99,,,-99.99,,2013-01-22 21:03:00,
2013-01-22 16:13:00,38.0,8.0,30.16,North,350,5.0,-999.0,28,-99.99,,,-99.99,,2013-01-22 21:13:00,
2013-01-22 16:23:00,38.0,8.0,30.16,North,350,5.0,-999.0,28,-99.99,,,-99.99,,2013-01-22 21:23:00,
2013-01-22 16:33:00,38.0,8.0,30.16,North,350,5.0,-999.0,28,-99.99,,,-99.99,,2013-01-22 21:33:00,
2013-01-22 16:43:00,38.0,8.0,30.16,North,350,5.0,-999.0,28,-99.99,,,-99.99,,2013-01-22 21:43:00,
2013-01-22 16:53:00,37.0,7.0,30.17,North,5,3.0,-999.0,28,-99.99,,,-99.99,,2013-01-22 21:53:00,
2013-01-22 17:03:00,36.0,8.0,30.18,North,355,5.0,-999.0,30,-99.99,,,-99.99,,2013-01-22 22:03:00,
2013-01-22 17:13:00,36.0,8.0,30.18,North,355,5.0,-999.0,30,-99.99,,,-99.99,,2013-01-22 22:13:00,
2013-01-22 17:23:00,36.0,8.0,30.18,NE,42,3.0,-999.0,30,-99.99,,,-99.99,,2013-01-22 22:23:00,
2013-01-22 17:33:00,36.0,8.0,30.18,NE,42,3.0,-999.0,30,-99.99,,,-99.99,,2013-01-22 22:33:00,
2013-01-22 17:43:00,36.0,8.0,30.18,NE,42,3.0,-999.0,30,-99.99,,,-99.99,,2013-01-22 22:43:00,
2013-01-22 17:53:00,36.0,8.0,30.18,NE,42,3.0,-999.0,30,-99.99,,,-99.99,,2013-01-22 22:53:00,
2013-01-22 18:03:00,33.0,8.0,30.19,North,-999,-999.0,-999.0,35,-99.99,,,-99.99,,2013-01-22 23:03:00,
2013-01-22 18:12:00,33.0,8.0,30.19,North,-999,-999.0,-999.0,35,-99.99,,,-99.99,,2013-01-22 23:12:00,
2013-01-22 18:24:00,31.0,8.0,30.19,North,-999,-999.0,-999.0,37,-99.99,,,-99.99,,2013-01-22 23:24:00,
2013-01-22 18:33:00,30.0,8.0,30.19,North,-999,-999.0,-999.0,39,-99.99,,,-99.99,,2013-01-22 23:33:00,
2013-01-22 18:43:00,30.0,8.0,30.19,North,-999,-999.0,-999.0,39,-99.99,,,-99.99,,2013-01-22 23:43:00,
2013-01-22 18:53:00,30.0,8.0,30.20,North,-999,-999.0,-999.0,39,-99.99,,,-99.99,,2013-01-22 23:53:00,
2013-01-22 19:03:00,30.0,8.0,30.20,North,-999,-999.0,-999.0,39,-99.99,,,-99.99,,2013-01-23 00:03:00,
2013-01-22 19:12:00,30.0,8.0,30.20,North,-999,-999.0,-999.0,39,-99.99,,,-99.99,,2013-01-23 00:12:00,
2013-01-22 19:23:00,29.0,8.0,30.21,North,-999,-999.0,-999.0,40,-99.99,,,-99.99,,2013-01-23 00:23:00,
2013-01-22 19:33:00,29.0,9.0,30.21,North,-999,-999.0,-999.0,42,-99.99,,,-99.99,,2013-01-23 00:33:00,
2013-01-22 19:43:00,29.0,9.0,30.21,North,-999,-999.0,-999.0,42,-99.99,,,-99.99,,2013-01-23 00:43:00,
2013-01-22 19:53:00,29.0,9.0,30.21,North,-999,-999.0,-999.0,43,-99.99,,,-99.99,,2013-01-23 00:53:00,
2013-01-22 20:03:00,29.0,9.0,30.21,North,-999,-999.0,-999.0,43,-99.99,,,-99.99,,2013-01-23 01:03:00,
2013-01-22 20:13:00,29.0,9.0,30.21,North,-999,-999.0,-999.0,43,-99.99,,,-99.99,,2013-01-23 01:13:00,
2013-01-22 20:23:00,28.0,9.0,30.23,North,-999,-999.0,-999.0,44,-99.99,,,-99.99,,2013-01-23 01:23:00,
2013-01-22 20:33:00,28.0,9.0,30.22,North,-999,-999.0,-999.0,44,-99.99,,,-99.99,,2013-01-23 01:33:00,
2013-01-22 20:43:00,28.0,9.0,30.22,North,-999,-999.0,-999.0,44,-99.99,,,-99.99,,2013-01-23 01:43:00,
2013-01-22 20:53:00,28.0,8.0,30.21,North,-999,-999.0,-999.0,43,-99.99,,,-99.99,,2013-01-23 01:53:00,
2013-01-22 21:03:00,28.0,8.0,30.21,North,-999,-999.0,-999.0,43,-99.99,,,-99.99,,2013-01-23 02:03:00,
2013-01-22 21:13:00,28.0,8.0,30.21,North,-999,-999.0,-999.0,43,-99.99,,,-99.99,,2013-01-23 02:13:00,
2013-01-22 21:23:00,28.0,8.0,30.21,North,-999,-999.0,-999.0,43,-99.99,,,-99.99,,2013-01-23 02:23:00,
2013-01-22 22:23:00,29.0,10.0,30.22,North,-999,-999.0,-999.0,45,-99.99,,,-99.99,,2013-01-23 03:23:00,
2013-01-22 22:33:00,29.0,10.0,30.21,North,-999,-999.0,-999.0,44,-99.99,,,-99.99,,2013-01-23 03:33:00,
2013-01-22 22:43:00,29.0,10.0,30.21,North,-999,-999.0,-999.0,44,-99.99,,,-99.99,,2013-01-23 03:43:00,
2013-01-22 22:53:00,29.0,10.0,30.21,North,-999,-999.0,-999.0,44,-99.99,,,-99.99,,2013-01-23 03:53:00,
2013-01-22 23:03:00,29.0,11.0,30.21,North,-999,-999.0,-999.0,46,-99.99,,,-99.99,,2013-01-23 04:03:00,
2013-01-22 23:13:00,29.0,11.0,30.21,North,-999,-999.0,-999.0,46,-99.99,,,-99.99,,2013-01-23 04:13:00,
2013-01-22 23:23:00,29.0,11.0,30.21,North,-999,-999.0,-999.0,46,-99.99,,,-99.99,,2013-01-23 04:23:00,
2013-01-22 23:33:00,29.0,9.0,30.21,North,-999,-999.0,-999.0,43,-99.99,,,-99.99,,2013-01-23 04:33:00,
2013-01-22 23:43:00,29.0,9.0,30.21,North,-999,-999.0,-999.0,43,-99.99,,,-99.99,,2013-01-23 04:43:00,
2013-01-22 23:53:00,29.0,9.0,30.21,North,-999,-999.0,-999.0,43,-99.99,,,-99.99,,2013-01-23 04:53:00,